Weather History for Perryton, TX

Change the Weather History Date:

Friday, May 11, 2012

  Actual Average Record
Temperature  
Mean Temperature 60 °F -  
Max Temperature 69 °F 77 °F 95 °F (1967)
Min Temperature 50 °F 48 °F 33 °F (1979)
Degree Days  
Heating Degree Days 6    
Growing Degree Days 10 (Base 50)    
Moisture  
Dew Point 45 °F    
Average Humidity 61    
Maximum Humidity 76    
Minimum Humidity 43    
Precipitation  
Precipitation 0.00 in - - ()
Sea Level Pressure  
Sea Level Pressure 30.03 in    
Wind  
Wind Speed 6 mph (ESE)    
Max Wind Speed 17 mph    
Max Gust Speed 23 mph    
Visibility 10 miles    
Events      
Averages and records for this station are not official NWS values.
T = Trace of Precipitation, MM = Missing Value Source: NWS Daily Summary

Daily Weather History Graph

Daily Weather History Graph

Search for Another Location

Airport:

Trip Planner

Search our weather history database for the weather conditions in past years. The results will help you decide how hot, cold, wet, or windy it might be!

Date:

Astronomy

May. 11, 2012 Rise Set
Actual Time 6:39 AM CDT 8:40 PM CDT
Civil Twilight 6:10 AM CDT 9:08 PM CDT
Nautical Twilight 5:36 AM CDT 9:43 PM CDT
Astronomical Twilight 4:59 AM CDT 10:20 PM CDT
Moon 1:21 AM CDT (5/11) 12:12 PM CDT (5/11)
Length of Visible Light 14h 57m
Length of Day
14h 00m
Waning Gibbous, 63% of the Moon is Illuminated
May 11
Waning Gibbous
May 12
Last Quarter
May 20
New
May 28
First Quarter
Jun 4
Full

Hourly Weather History & Observations

Time (CDT) Temp. Dew Point Humidity Pressure Visibility Wind Dir Wind Speed Gust Speed Precip Events Conditions
12:15 AM 53.6 °F 41.0 °F 62% 29.92 in 10.0 mi South 5.8 mph - N/A   Clear
12:35 AM 53.6 °F 41.0 °F 62% 29.92 in 10.0 mi SE 4.6 mph - N/A   Clear
12:55 AM 53.6 °F 39.2 °F 58% 29.92 in 10.0 mi SSE 4.6 mph - N/A   Clear
1:15 AM 51.8 °F 39.2 °F 62% 29.92 in 10.0 mi SE 4.6 mph - N/A   Clear
1:35 AM 51.8 °F 39.2 °F 62% 29.92 in 10.0 mi Calm Calm - N/A   Clear
1:55 AM 51.8 °F 39.2 °F 62% 29.91 in 10.0 mi Calm Calm - N/A   Clear
2:15 AM 51.8 °F 39.2 °F 62% 29.91 in 10.0 mi SSE 3.5 mph - N/A   Clear
2:35 AM 53.6 °F 41.0 °F 62% 29.91 in 10.0 mi ESE 3.5 mph - N/A   Clear
2:55 AM 53.6 °F 41.0 °F 62% 29.91 in 10.0 mi ESE 3.5 mph - N/A   Clear
3:15 AM 53.6 °F 41.0 °F 62% 29.91 in 10.0 mi East 3.5 mph - N/A   Clear
3:35 AM 53.6 °F 42.8 °F 67% 29.91 in 10.0 mi ESE 4.6 mph - N/A   Clear
3:55 AM 51.8 °F 41.0 °F 67% 29.91 in 10.0 mi ESE 6.9 mph - N/A   Clear
4:15 AM 51.8 °F 41.0 °F 67% 29.91 in 10.0 mi SE 5.8 mph - N/A   Clear
4:35 AM 51.8 °F 42.8 °F 71% 29.91 in 10.0 mi SE 6.9 mph - N/A   Clear
4:55 AM 51.8 °F 42.8 °F 71% 29.91 in 10.0 mi SE 6.9 mph - N/A   Clear
5:15 AM 51.8 °F 42.8 °F 71% 29.91 in 10.0 mi SE 4.6 mph - N/A   Clear
5:35 AM 51.8 °F 42.8 °F 71% 29.91 in 10.0 mi SSE 3.5 mph - N/A   Clear
5:55 AM 51.8 °F 42.8 °F 71% 29.91 in 10.0 mi SSE 3.5 mph - N/A   Clear
6:15 AM 50.0 °F 42.8 °F 76% 29.92 in 10.0 mi SE 4.6 mph - N/A   Clear
6:35 AM 51.8 °F 42.8 °F 71% 29.93 in 10.0 mi SE 5.8 mph - N/A   Clear
6:55 AM 51.8 °F 42.8 °F 71% 29.93 in 10.0 mi SE 4.6 mph - N/A   Clear
7:15 AM 51.8 °F 44.6 °F 76% 29.94 in 10.0 mi ESE 4.6 mph - N/A   Clear
7:35 AM 53.6 °F 44.6 °F 72% 29.96 in 10.0 mi Calm Calm - N/A   Clear
7:55 AM 53.6 °F 44.6 °F 72% 29.97 in 10.0 mi East 4.6 mph - N/A   Clear
8:15 AM 55.4 °F 46.4 °F 72% 29.98 in 10.0 mi Calm Calm - N/A   Mostly Cloudy
8:35 AM 59.0 °F 48.2 °F 67% 29.99 in 10.0 mi East 3.5 mph - N/A   Overcast
8:55 AM 60.8 °F 50.0 °F 68% 30.00 in 10.0 mi Calm Calm - N/A   Overcast
9:15 AM 60.8 °F 50.0 °F 68% 30.00 in 10.0 mi Calm Calm - N/A   Scattered Clouds
9:35 AM 62.6 °F 51.8 °F 68% 30.01 in 10.0 mi Calm Calm - N/A   Clear
9:55 AM 62.6 °F 51.8 °F 68% 30.03 in 10.0 mi ENE 3.5 mph - N/A   Clear
10:15 AM 64.4 °F 50.0 °F 59% 30.03 in 10.0 mi NE 5.8 mph - N/A   Mostly Cloudy
10:35 AM 66.2 °F 50.0 °F 56% 30.03 in 10.0 mi ENE 6.9 mph - N/A   Overcast
10:55 AM 66.2 °F 50.0 °F 56% 30.04 in 10.0 mi NE 10.4 mph - N/A   Overcast
11:15 AM 68.0 °F 50.0 °F 52% 30.04 in 10.0 mi NNE 6.9 mph - N/A   Scattered Clouds
11:35 AM 68.0 °F 50.0 °F 52% 30.05 in 10.0 mi NNE 6.9 mph - N/A   Scattered Clouds
11:55 AM 68.0 °F 48.2 °F 49% 30.06 in 10.0 mi NE 10.4 mph 18.4 mph N/A   Mostly Cloudy
12:15 PM 68.0 °F 46.4 °F 46% 30.06 in 10.0 mi NE 10.4 mph - N/A   Mostly Cloudy
12:35 PM 68.0 °F 46.4 °F 46% 30.06 in 10.0 mi NE 10.4 mph 16.1 mph N/A   Scattered Clouds
12:55 PM 69.8 °F 46.4 °F 43% 30.05 in 10.0 mi NE 17.3 mph 21.9 mph N/A   Scattered Clouds
1:15 PM 69.8 °F 46.4 °F 43% 30.06 in 10.0 mi East 11.5 mph - N/A   Scattered Clouds
1:35 PM 69.8 °F 46.4 °F 43% 30.06 in 10.0 mi East 15.0 mph 23.0 mph N/A   Scattered Clouds
1:55 PM 69.8 °F 46.4 °F 43% 30.06 in 10.0 mi East 13.8 mph 19.6 mph N/A   Clear
2:15 PM 69.8 °F 46.4 °F 43% 30.06 in 10.0 mi East 11.5 mph 19.6 mph N/A   Scattered Clouds
2:35 PM 68.0 °F 50.0 °F 52% 30.08 in 10.0 mi SE 13.8 mph - N/A   Mostly Cloudy
2:55 PM 66.2 °F 51.8 °F 60% 30.08 in 10.0 mi SSE 12.7 mph - N/A   Mostly Cloudy
3:15 PM 64.4 °F 53.6 °F 68% 30.09 in 10.0 mi SSE 11.5 mph 18.4 mph N/A   Mostly Cloudy
3:35 PM 62.6 °F 51.8 °F 68% 30.10 in 10.0 mi South 12.7 mph 17.3 mph N/A   Mostly Cloudy
3:55 PM 62.6 °F 50.0 °F 63% 30.09 in 10.0 mi SSE 11.5 mph 16.1 mph N/A   Scattered Clouds
4:15 PM 64.4 °F 50.0 °F 59% 30.09 in 10.0 mi SE 13.8 mph 18.4 mph N/A   Scattered Clouds
4:35 PM 64.4 °F 50.0 °F 59% 30.09 in 10.0 mi SSE 12.7 mph - N/A   Clear
4:55 PM 64.4 °F 50.0 °F 59% 30.09 in 10.0 mi SE 11.5 mph 16.1 mph N/A   Scattered Clouds
5:15 PM 62.6 °F 50.0 °F 63% 30.09 in 10.0 mi SE 13.8 mph - N/A   Mostly Cloudy
5:35 PM 62.6 °F 51.8 °F 68% 30.09 in 10.0 mi SE 8.1 mph - N/A   Overcast
5:55 PM 62.6 °F 50.0 °F 63% 30.09 in 10.0 mi SE 10.4 mph - N/A   Overcast
6:15 PM 62.6 °F 48.2 °F 59% 30.09 in 10.0 mi ESE 9.2 mph - N/A   Mostly Cloudy
6:35 PM 64.4 °F 50.0 °F 59% 30.10 in 10.0 mi ESE 11.5 mph - N/A   Scattered Clouds
6:55 PM 64.4 °F 44.6 °F 49% 30.10 in 10.0 mi East 13.8 mph 18.4 mph N/A   Scattered Clouds
7:15 PM 64.4 °F 46.4 °F 52% 30.10 in 10.0 mi ESE 8.1 mph 18.4 mph N/A   Clear
7:35 PM 64.4 °F 44.6 °F 49% 30.11 in 10.0 mi ESE 11.5 mph - N/A   Mostly Cloudy
7:55 PM 62.6 °F 44.6 °F 52% 30.11 in 10.0 mi East 10.4 mph - N/A   Scattered Clouds
8:15 PM 62.6 °F 42.8 °F 48% 30.12 in 10.0 mi East 8.1 mph - N/A   Mostly Cloudy
8:35 PM 60.8 °F 42.8 °F 52% 30.12 in 10.0 mi East 6.9 mph - N/A   Mostly Cloudy
8:55 PM 59.0 °F 42.8 °F 55% 30.13 in 10.0 mi East 4.6 mph - N/A   Clear
9:15 PM 57.2 °F 42.8 °F 59% 30.14 in 10.0 mi East 4.6 mph - N/A   Clear
9:35 PM 55.4 °F 42.8 °F 63% 30.15 in 10.0 mi East 4.6 mph - N/A   Clear
9:55 PM 53.6 °F 42.8 °F 67% 30.16 in 10.0 mi East 4.6 mph - N/A   Clear
10:15 PM 53.6 °F 42.8 °F 67% 30.17 in 10.0 mi ESE 5.8 mph - N/A   Clear
10:35 PM 51.8 °F 42.8 °F 71% 30.18 in 10.0 mi ESE 4.6 mph - N/A   Clear
10:55 PM 51.8 °F 42.8 °F 71% 30.19 in 10.0 mi East 5.8 mph - N/A   Clear
11:15 PM 53.6 °F 42.8 °F 67% 30.19 in 10.0 mi ESE 3.5 mph - N/A   Clear
11:35 PM 51.8 °F 42.8 °F 71% 30.19 in 10.0 mi ESE 4.6 mph - N/A   Clear
11:55 PM 50.0 °F 42.8 °F 76% 30.19 in 10.0 mi Calm Calm - N/A   Clear